Location: Hampton Hill
(51.4167°N, 0.3500°W)
Time: 15:00:11
(UTC+00:00)

Daily predictions for brighter satellites

Satellite Brightness Start Highest point End
(mag) Time Altitude Azimuth Time Altitude Azimuth Time Altitude Azimuth
Cosmos 1340 Rocket 2.8 16:45:17 10° S 16:49:17 71° E 16:53:21 10° NNE
Cosmos-2242 3.7 16:46:35 10° SSW 16:50:48 58° WNW 16:55:01 10° N
Cosmos 1437 2.5 16:48:27 10° N 16:51:33 75° ENE 16:54:37 10° SSE
Cosmos 1633 4.3 16:50:53 10° NNE 16:52:57 14° ENE 16:55:01 10° E
BREEZE-M DEB (TANK) 3.0 16:48:26 10° WSW 16:53:43 57° S 16:56:09 10° E
Cosmos 2219 3.2 16:48:19 10° NNW 16:53:56 63° NE 16:59:30 10° SE
CZ-4B R/B 2.8 16:51:58 10° N 16:55:06 38° WNW 16:58:16 10° SW
TELKOM 3 4.0 16:55:49 10° W 16:57:59 38° SSW 16:59:59 10° ESE
Cosmos 2369 Rocket 3.4 16:54:22 10° WSW 16:59:35 38° NW 17:04:48 10° NNE
Cosmos 2233 Rocket 4.1 16:53:22 10° N 16:59:41 64° ENE 17:05:56 10° SSE
USA 215 3.5 16:54:08 10° E 17:00:30 58° N 17:06:52 10° WNW
CZ-4 R/B 2.7 16:58:50 10° ESE 17:01:55 20° ENE 17:04:57 10° NNE
Elektron 3 3.7 17:01:11 10° SW 17:04:35 78° SE 17:07:23 11° NE
Cosmos 1743 Rocket 3.5 17:00:39 10° N 17:05:01 78° ENE 17:09:23 10° SSE
Cosmos 1805 Rocket 4.1 17:01:13 10° N 17:05:15 35° ENE 17:09:16 10° SE
Envisat 3.4 17:05:44 10° SE 17:10:29 42° ENE 17:15:16 10° N
NOSS 3-1 (C) 4.4 17:07:15 10° SSE 17:11:47 26° ESE 17:16:25 11° ENE
CSL-04 Rocket 4.5 17:07:30 10° ESE 17:11:59 28° ENE 17:16:26 10° N
AQUARIUS 4.1 17:07:40 10° SSE 17:12:09 71° ENE 17:16:39 10° N
Cosmos 1455 3.0 17:09:22 10° SSW 17:13:04 54° WNW 17:16:46 10° N
Cosmos 2227 Rocket 2.3 17:09:18 10° NNW 17:14:57 59° NE 17:20:32 10° SE
Cosmos 2297 Rocket 2.2 17:09:37 10° NNW 17:15:16 63° NE 17:20:52 10° SE
YAOGAN 6 3.6 17:13:55 10° ESE 17:16:46 24° ENE 17:19:37 10° NNE
Okean O Rocket 3.5 17:14:29 10° SSW 17:18:31 34° W 17:22:32 10° NNW
Cosmos 2344 3.6 17:11:08 10° SW 17:18:37 83° SE 17:27:10 10° NE
CORIOLIS 4.1 17:14:43 10° SSE 17:20:07 79° ENE 17:25:35 10° NNW
Cosmos 1464 Rocket 4.3 17:15:27 10° N 17:21:15 40° ENE 17:26:59 10° SE
IRS-1C Rocket 4.4 17:18:20 10° S 17:23:36 73° WSW 17:28:54 10° NNW
SeaSat 1 2.4 17:20:36 10° SE 17:25:32 82° ENE 17:30:30 10° NNW
Cosmos 2123 Rocket 4.2 17:20:50 10° SSW 17:27:02 76° W 17:33:15 10° N
Cosmos 1500 Rocket 4.0 17:25:37 10° NNW 17:29:59 67° W 17:34:18 10° S
Meteor 2-10 Rocket 3.8 17:25:13 10° SSW 17:30:11 67° WNW 17:35:16 10° N
H-2A R/B 2.9 17:27:59 10° S 17:31:51 80° W 17:35:42 10° NNW
Cosmos 1943 Rocket 4.1 17:30:18 10° W 17:34:47 24° NW 17:39:20 10° NNE
Cosmos 1633 Rocket 3.7 17:31:26 10° N 17:35:25 33° ENE 17:39:25 10° SE
Geosat 4.2 17:30:52 10° NE 17:35:47 51° ESE 17:40:40 10° S
ASTEX 1 4.3 17:33:35 10° N 17:38:29 54° WNW 17:43:20 10° SSW
Cosmos 2263 Rocket 3.5 17:35:15 10° NNW 17:39:23 20° NE 17:41:12 18° ENE
Genesis I 3.3 17:35:33 10° SSW 17:39:30 60° SE 17:42:05 20° NE
Meteor 2-2 Rocket 4.3 17:33:56 10° S 17:39:43 65° E 17:45:26 10° NNE
Cosmos 2082 3.7 17:36:28 10° NNW 17:42:03 60° NE 17:47:36 10° SE
NOSS 7 (D) 3.7 17:40:14 10° SW 17:43:09 89° ESE 17:44:24 29° NE
COSMO-SKYMED 1 3.1 17:39:19 10° NNE 17:43:20 35° E 17:47:19 10° SSE
SMAP 3.8 17:39:34 10° S 17:44:08 56° W 17:48:45 10° NNW
Meteor 1-27 4.2 17:39:22 10° S 17:45:02 90° WSW 17:50:50 10° NNE
Cosmos 1862 3.7 17:41:38 10° N 17:45:24 39° ENE 17:49:09 10° SE
Cosmos 1666 Rocket 3.7 17:41:50 10° N 17:46:07 47° ENE 17:50:20 10° SSE
Cosmos 1607 4.2 17:41:01 10° NW 17:47:12 73° SW 17:53:27 10° SSE
ERBS 4.3 17:45:44 10° SSE 17:47:20 14° SE 17:47:20 14° SE
Sich 1 2.9 17:45:32 10° N 17:49:52 68° ENE 17:54:12 10° SSE
CENTAUR R/B 3.9 17:44:44 10° WNW 17:50:59 33° N 17:56:07 17° NE
Ariane Rocket 3.8 17:51:23 21° E 17:53:33 29° ENE 17:57:54 10° N
Cosmos 1697 Rocket 3.5 17:50:48 10° SSE 17:55:33 29° ESE 17:57:08 25° ENE
Cosmos 1238 Rocket 4.2 17:51:11 10° NNW 17:55:42 45° W 17:59:26 10° SSW
NOSS 8 (A) 4.1 17:53:04 10° SSW 17:56:08 61° SE 17:56:54 43° ENE
ATLAS 5 CENTAUR R/B 2.7 17:51:54 10° NW 17:57:31 67° SW 18:03:59 10° SSE
Cosmos 1867 3.7 17:52:28 10° SW 17:57:56 79° NW 18:02:11 18° NE
H-2A R/B 3.8 18:00:03 16° NE 18:00:03 16° NE 18:02:17 10° NNE
Cosmos 1151 Rocket 4.4 17:57:16 10° SE 17:59:22 22° ESE 17:59:22 22° ESE
Cosmos 773 Rocket 4.0 17:58:58 10° SSW 18:04:08 88° WNW 18:09:20 10° NNE
BREEZE-M DEB (TANK) 4.2 18:01:44 10° SSW 18:05:07 17° SSE 18:06:06 16° SE
ATLAS 3B R/B 3.9 18:02:14 10° WNW 18:07:53 28° N 18:11:26 18° NE
Cosmos 923 Rocket 4.4 18:04:21 10° S 18:09:11 40° ESE 18:10:51 31° ENE
Cosmos 1624 Rocket 4.4 18:06:54 10° NNW 18:12:01 43° ENE 18:13:48 32° E
Cosmos 2056 Rocket 3.8 18:07:11 10° NNW 18:12:02 41° NE 18:13:20 34° E
GEOS 3 Rocket 3.6 18:09:56 21° NE 18:13:28 82° NW 18:18:44 10° SW
Cosmos 2278 Rocket 4.5 18:12:51 10° N 18:13:28 10° N 18:14:06 10° N
Cosmos 1356 Rocket 3.3 18:10:18 10° S 18:14:28 88° E 18:18:43 10° NNE
YAOGAN 1 2.4 18:10:29 10° SSE 18:14:48 75° ENE 18:19:09 10° N
Cosmos 2221 4.0 18:12:51 10° SW 18:16:52 37° WNW 18:20:56 10° N
Cosmos 1470 Rocket 3.8 18:12:34 10° N 18:16:56 47° ENE 18:17:57 39° ESE
Cosmos 2034 Rocket 3.9 18:11:13 10° N 18:17:34 71° ENE 18:23:55 10° SSE
COBE Rocket 4.3 18:14:47 10° N 18:19:36 63° WNW 18:24:16 10° SSW
CZ-3B R/B 3.2 18:17:31 10° W 18:19:34 43° NNW 18:19:34 43° NNW
Cosmos 1538 Rocket 4.0 18:16:02 10° SSW 18:21:18 84° WNW 18:25:50 15° NNE
Lacrosse 4 Rocket 2.2 18:18:05 10° S 18:21:01 33° SE 18:21:01 33° SE
Gblst 52 Del rocket 4.4 18:15:41 10° WSW 18:22:41 87° S 18:25:22 37° E
Cosmos 1844 Rocket 4.5 18:20:21 10° N 18:23:27 15° NNE 18:23:31 15° NNE
USA 116 4.1 18:21:51 31° NE 18:23:53 58° ESE 18:28:44 10° S
Okean-O 4.3 18:20:53 10° SSW 18:24:59 36° W 18:29:06 10° NNW
Meteor 2-11 Rocket 4.3 18:19:14 10° N 18:25:23 77° ENE 18:31:30 10° SSE
NOAA 11 4.1 18:22:16 10° SSE 18:27:39 68° ENE 18:33:04 10° N
Cosmos 1633 3.2 18:24:35 10° NNW 18:28:11 57° W 18:31:46 10° S
Cosmos 1656 3.5 18:24:35 10° SSW 18:30:08 79° ESE 18:33:00 30° NE
SKYMED 2 3.6 18:27:27 11° NNE 18:31:37 82° WNW 18:35:57 10° SSW
CSL-04 Debris 4.3 18:27:26 10° SSE 18:32:56 79° WSW 18:38:28 10° NNW
CZ-2D R/B 3.3 18:34:29 64° NNE 18:34:29 64° NNE 18:37:56 10° N
Cosmos 1869 4.4 18:30:23 10° SSW 18:34:10 44° WNW 18:37:58 10° N
CZ-4 R/B 2.2 18:32:33 10° S 18:36:37 53° W 18:40:40 10° NNW
Cosmos 724 4.2 18:31:58 10° NW 18:37:52 90° SW 18:40:39 33° SE
Cosmos 1634 Rocket 4.1 18:33:46 10° N 18:39:48 49° ENE 18:40:42 45° E
MOS 1 4.4 18:41:33 49° ENE 18:41:50 50° ENE 18:47:17 10° N
Tsikada Rocket 4.0 18:36:00 10° S 18:42:13 59° E 18:48:31 10° NNE
USA 215 3.2 18:40:26 37° ESE 18:43:20 90° ENE 18:49:55 10° WNW
Cosmos 1816 Rocket 4.4 18:43:16 10° S 18:49:33 69° E 18:55:54 10° NNE
YAOGAN 6 4.5 18:47:04 10° SSW 18:50:11 30° W 18:53:19 10° NNW
CSL-04 Rocket 4.2 18:46:45 10° S 18:52:01 57° WSW 18:57:16 10° NNW
Cosmos 1939 Rocket 3.0 18:52:15 78° WNW 18:52:15 78° WNW 18:56:18 10° NNW
USA 229 DEB 3.7 18:49:12 10° SW 18:55:50 80° NW 18:58:48 37° NE
USA 229 3.7 18:49:18 10° SW 18:55:56 80° NW 18:58:52 38° NE
Cosmos 2227 Rocket 4.1 18:53:52 10° NW 18:58:41 29° WSW 19:03:28 10° SSW
Cosmos 2297 Rocket 4.2 18:54:15 10° NW 18:58:56 27° WSW 19:03:34 10° SSW
Cosmos 1980 Rocket 3.2 18:53:34 10° S 18:56:39 31° SSE 18:56:39 31° SSE
NOSS 3-1 (A) 3.2 18:55:15 10° SW 19:00:53 78° SE 19:01:51 64° ENE
NOSS 3-1 (C) 3.4 18:56:08 10° SW 19:01:51 78° NW 19:03:50 46° NE
Cosmos 1371 Rocket 4.0 18:56:59 10° NNW 19:02:13 77° WSW 19:03:21 55° S
Cosmos 2369 3.7 19:12:08 10° SW 19:17:48 77° WNW 19:18:22 69° N
COSMO-SKYMED 1 4.3 19:16:01 12° N 19:19:27 31° WNW 19:23:15 10° SW
Cosmos 2263 Rocket 2.7 19:18:43 10° NNW 19:22:54 50° N 19:22:54 50° N
Cosmos 1680 Rocket 3.9 19:21:37 10° SSW 19:26:05 60° WSW 19:26:05 60° WSW
Ariane Rocket 3.7 19:31:36 47° SW 19:32:18 51° W 19:37:16 10° NNW
H-2A R/B 3.7 19:40:41 27° N 19:40:41 27° N 19:42:59 10° NNW
Cosmos 2278 4.2 19:32:15 10° SW 19:36:48 56° WSW 19:36:48 56° WSW
Cosmos 1697 Rocket 3.1 19:33:36 10° SW 19:38:55 59° WNW 19:38:55 59° WNW
CENTAUR R/B 3.6 19:36:27 10° NW 19:43:18 44° NNE 19:43:18 44° NNE
USA 238 DEB 4.1 19:39:14 10° NW 19:45:20 57° N 19:45:20 57° N
USA 238 4.1 19:39:20 10° NW 19:45:26 56° N 19:45:26 56° N
NOSS 3-2 (A) 4.2 19:46:28 10° NW 19:52:33 57° N 19:52:33 57° N
ATLAS 3B R/B 3.7 19:54:06 10° NW 19:58:41 34° N 19:58:41 34° N
Lacrosse 4 Rocket 4.3 19:56:50 10° WSW 19:57:22 13° WSW 19:57:22 13° WSW
USA 215 4.4 20:27:47 35° WSW 20:27:47 35° WSW 20:32:50 10° WNW
